Погода в Шокше

Россия / Республика Карелия     61°27′29″N   35°02′35″E
темп.,
°C
ветер,
м/с
пор.,
м/с
влажн.,
%
обл.,
%
осадки,
мм/ч
давл.,
гПа
погр.,
м
4 марта, чт
чт400:00−3зсз6148662 0.1 994499
03:00−5сз7149045 0.1 996571
06:00−7ссз5109597 0.1 997364
09:00−10ссз379690 0.2 999185
12:00−6сз359264 0.0 999273
15:00−4сз369363 0.1 999502
18:00−6сз359296 0.2 1000128
21:00−7сз389596 0.3 1000236
5 марта, пт
пт500:00−9сз379691 0.1 1001177
03:00−10ссз489593 0.3 1004248
06:00−14ссз469371 0.0 1005131
09:00−15ссз379436 0.0 1007190
12:00−11сз249079 0.0 1009267
15:00−8сз358783 0.1 1010496
18:00−11сз229294 0.0 101121
21:00−11с239794 0.2 101328
6 марта, сб
сб600:00−14сз239652 0.0 101421
03:00−16зсз229526 0.0 101520
06:00−16юз23940 0.0 101420
09:00−14юз35940 0.0 1013113
12:00−9ююз48900 0.0 1011351
15:00−6ююз6118729 0.1 1007727
18:00−6ю71390100 0.1 1001889
21:00−6ю71592100 0.8 9941012
7 марта, вс
вс700:00−3ююз71592100 0.5 987761
03:00−2ююз61293100 1.3 984642
06:00−8з71386100 0.9 984768
09:00−13з4108081 0.9 986321
12:00−9зюз13740 0.0 988549
15:00−8ю127813 0.0 990552
18:00−13св348934 0.0 99259
21:00−13ссз358959 0.0 995105
8 марта, пн
пн800:00−11с81490100 0.1 998632
03:00−12с81392100 0.3 1001730
06:00−16с91492100 0.5 1004563
09:00−18с81493100 0.8 1007521
12:00−17с71291100 0.1 1010564
15:00−15с71190100 0.1 1013550
18:00−16ссз6129396 0.0 1015412
21:00−18с5109593 0.0 1018281